Park Rapids, MN

8:26 AM CST on February 24, 2018 (GMT -0600)
Park Rapids Municipal

Weather History for KPKD - September, 2011

Change the Weather History Date:

Saturday, September 17, 2011

  Actual Average Record
Temperature  
Mean Temperature 48 °F -  
Max Temperature 59 °F 68 °F 87 °F (1948)
Min Temperature 39 °F 44 °F 24 °F (1959)
Degree Days  
Heating Degree Days 17    
Moisture  
Dew Point 42 °F    
Average Humidity 75    
Maximum Humidity 93    
Minimum Humidity 60    
Precipitation  
Precipitation 0.00 in - - ()
Sea Level Pressure  
Sea Level Pressure 30.12 in    
Wind  
Wind Speed 12 mph (SSE)    
Max Wind Speed 22 mph    
Max Gust Speed 25 mph    
Visibility 10 miles    
Events      
Averages and records for this station are not official NWS values.
T = Trace of Precipitation, MM = Missing Value Source: NWS Daily Summary

Daily Weather History Graph

Daily Weather History Graph

Search for Another Location

Airport or City:

Trip Planner

Search our weather history database for the weather conditions in past years. The results will help you decide how hot, cold, wet, or windy it might be!

Date:

Astronomy

Sep. 17, 2011 Rise Set
Actual Time 7:00 AM CDT 7:28 PM CDT
Civil Twilight 6:29 AM CDT 7:58 PM CDT
Nautical Twilight 5:53 AM CDT 8:34 PM CDT
Astronomical Twilight 5:16 AM CDT 9:12 PM CDT
Moon 9:34 PM CDT (9/17) 12:27 PM CDT (9/17)
Length of Visible Light 13h 29m
Length of Day
12h 28m
Waning Gibbous, 76% of the Moon is Illuminated
Sep 17
Waning Gibbous
Sep 20
Last Quarter
Sep 27
New
Oct 3
First Quarter
Oct 11
Full

Hourly Weather History & Observations

Time (CDT) Temp. Windchill Dew Point Humidity Pressure Visibility Wind Dir Wind Speed Gust Speed Precip Events Conditions
12:53 AM 39.9 °F 35.1 °F 35.1 °F 83% 30.19 in 10.0 mi SSE 6.9 mph - N/A   Clear
1:53 AM 39.9 °F 34.5 °F 35.1 °F 83% 30.19 in 10.0 mi SSE 8.1 mph - N/A   Clear
2:53 AM 39.9 °F 33.9 °F 36.0 °F 86% 30.18 in 10.0 mi SSE 9.2 mph - N/A   Clear
3:53 AM 39.9 °F 33.9 °F 36.0 °F 86% 30.18 in 10.0 mi SSE 9.2 mph - N/A   Clear
4:53 AM 39.0 °F 33.4 °F 37.0 °F 93% 30.18 in 10.0 mi SSE 8.1 mph - N/A   Clear
6:30 AM 41.0 °F 33.9 °F 39.2 °F 93% 30.13 in 10.0 mi SE 12.7 mph - N/A   Mostly Cloudy
6:53 AM 42.1 °F 35.2 °F 39.0 °F 89% 30.17 in 10.0 mi SSE 12.7 mph - N/A   Overcast
7:29 AM 42.8 °F 36.2 °F 39.2 °F 87% 30.13 in 9.0 mi SE 12.7 mph - N/A   Overcast
7:53 AM 44.1 °F 38.1 °F 41.0 °F 89% 30.17 in 10.0 mi SE 11.5 mph - N/A   Overcast
8:53 AM 46.0 °F 39.9 °F 42.1 °F 86% 30.17 in 10.0 mi SSE 13.8 mph - N/A   Overcast
9:02 AM 46.4 °F 40.7 °F 42.8 °F 87% 30.13 in 10.0 mi SSE 12.7 mph - N/A   Overcast
9:30 AM 46.4 °F 40.4 °F 42.8 °F 87% 30.13 in 10.0 mi SSE 13.8 mph - N/A   Overcast
9:53 AM 48.0 °F - 42.1 °F 80% 30.17 in 10.0 mi SSE 15.0 mph - N/A   Overcast
11:09 AM 51.8 °F - 42.8 °F 71% 30.12 in 10.0 mi SSE 15.0 mph - N/A   Overcast
11:53 AM 52.0 °F - 43.0 °F 71% 30.15 in 10.0 mi SSE 13.8 mph - N/A   Overcast
12:53 PM 53.6 °F - 44.6 °F 72% 30.11 in 10.0 mi SSE 16.1 mph 25.3 mph N/A   Overcast
1:53 PM 55.0 °F - 44.1 °F 67% 30.12 in 10.0 mi SSE 17.3 mph - N/A   Overcast
2:53 PM 57.0 °F - 44.1 °F 62% 30.10 in 10.0 mi SSE 19.6 mph - N/A   Overcast
3:46 PM 57.2 °F - 44.6 °F 63% 30.06 in 10.0 mi SSE 19.6 mph 25.3 mph N/A   Overcast
3:53 PM 57.9 °F - 44.1 °F 60% 30.09 in 10.0 mi South 19.6 mph - N/A   Overcast
4:53 PM 57.0 °F - 44.1 °F 62% 30.09 in 10.0 mi SSE 21.9 mph - N/A   Overcast
5:53 PM 57.0 °F - 44.1 °F 62% 30.08 in 10.0 mi SSE 16.1 mph - N/A   Overcast
6:53 PM 57.0 °F - 44.1 °F 62% 30.06 in 10.0 mi SSE 17.3 mph 21.9 mph N/A   Overcast
7:53 PM 55.9 °F - 44.1 °F 64% 30.06 in 10.0 mi SE 12.7 mph - N/A   Overcast
8:53 PM 55.9 °F - 44.1 °F 64% 30.06 in 10.0 mi SE 12.7 mph - N/A   Overcast
9:53 PM 55.9 °F - 43.0 °F 62% 30.06 in 10.0 mi SSE 12.7 mph - N/A   Overcast
10:53 PM 55.0 °F - 43.0 °F 64% 30.06 in 10.0 mi SE 15.0 mph - N/A   Overcast
11:53 PM 55.0 °F - 43.0 °F 64% 30.04 in 10.0 mi SE 13.8 mph - N/A   Overcast